Dewpoint
58 58 58 57 57 57 57 57 57 57 57 57 56 56 56 56 56 56 56 56 56 56 56 56 57 57 57 57 56 57 58 56 54 53 49 39 54 57 68 69 66 65 67 40 36 35 39 42 42 45 45 45 46 47 54 64 66 61 57 56 53 56 56 58 58 59 60 57 60 61 62 59 57 61 62 60 58 59 58 57 59 60 61 63 64 65 66 68
57 57 57 57 57 57 57 57 57 57 57 57 56 56 56 56 56 56 56 56 56 56 56 57 57 57 57 56 57 58 57 55 53 53 47 54 65 68 70 70 70 67 59 36 29 32 33 36 43 45 44 46 46 45 62 61 64 59 57 55 51 58 59 61 62 62 60 60 60 62 62 60 58 60 61 56 56 56 56 58 60 61 62 64 65 66 67 68
57 57 57 57 56 57 57 57 57 57 56 56 57 57 57 57 57 56 56 56 56 56 56 56 57 57 57 57 58 58 56 54 54 47 45 66 68 69 71 74 73 66 41 40 33 28 28 38 44 43 43 43 44 45 60 61 62 61 55 52 54 57 62 64 65 64 66 62 60 61 61 60 60 63 65 56 55 55 55 58 59 60 62 64 66 67 67 68
56 56 56 56 56 56 56 56 57 56 56 56 56 57 57 57 56 56 56 56 56 56 56 56 57 57 57 58 58 57 55 54 37 39 46 71 68 69 73 73 73 60 40 34 31 30 37 40 41 41 42 41 42 54 56 60 60 59 56 54 55 60 57 61 65 65 65 62 61 61 61 59 60 62 62 57 54 54 56 58 57 60 62 64 66 67 67 68
56 55 56 56 55 56 56 56 56 56 56 56 56 56 56 56 56 56 56 56 56 56 56 56 57 57 57 58 58 56 53 32 31 43 43 71 70 70 73 73 71 48 36 37 36 38 36 38 42 42 40 38 33 56 57 61 61 59 56 60 60 62 58 63 63 64 65 64 62 60 58 59 63 63 61 56 53 52 54 57 58 61 63 65 66 67 67 68
55 55 55 55 55 55 55 55 55 55 56 56 56 56 56 56 56 56 56 56 56 56 56 57 57 58 58 59 56 54 42 28 33 39 74 73 71 72 74 73 69 47 42 44 41 43 40 40 41 39 32 36 42 48 51 60 60 55 58 63 64 63 61 63 64 64 65 62 60 59 61 63 61 61 63 56 55 56 59 59 60 62 64 66 67 67 67 67
55 55 55 55 55 55 55 55 55 55 55 55 55 55 55 55 55 56 56 56 56 57 57 57 57 58 58 59 54 52 39 36 43 42 71 73 72 73 71 70 65 45 39 43 44 39 40 34 34 33 23 22 17 44 45 59 61 57 56 63 63 64 63 64 64 65 64 62 61 64 66 60 61 57 61 57 58 60 57 60 62 63 65 66 66 67 67 67
55 55 55 55 55 55 55 55 55 55 55 55 55 56 55 55 55 55 56 56 57 57 57 57 57 58 59 56 50 39 41 36 39 59 73 71 70 71 68 56 48 45 38 41 39 35 31 28 27 28 21 14 21 46 59 58 59 60 59 62 63 64 64 64 64 64 65 64 65 65 62 60 62 59 62 61 61 56 59 62 63 64 65 65 66 66 66 67
55 55 55 55 55 55 55 56 56 56 56 56 56 56 56 56 56 56 56 56 56 57 57 57 58 58 58 56 43 29 29 40 45 66 65 64 65 58 46 43 46 44 41 38 36 33 26 24 25 21 18 18 50 58 58 56 55 62 62 63 63 62 63 64 63 63 64 64 64 61 60 62 64 64 58 60 60 56 62 62 63 64 64 64 65 65 66 66
55 55 55 55 55 55 55 56 56 56 56 56 56 56 56 56 55 56 56 56 56 57 57 58 58 58 55 53 30 26 29 47 63 62 58 63 56 39 40 44 41 34 34 35 32 28 26 26 23 25 23 19 37 61 61 58 55 63 63 63 62 62 62 63 62 61 63 63 62 59 60 61 64 60 53 60 59 59 62 62 63 63 63 64 64 65 65 65
55 55 55 55 55 55 55 55 56 56 56 56 56 56 56 56 56 56 56 56 57 57 57 58 59 58 54 54 30 26 32 42 56 49 59 55 46 35 39 45 38 33 29 32 31 29 27 27 26 26 20 29 62 62 63 62 63 62 62 62 62 62 62 63 62 61 61 60 62 62 60 62 63 61 56 58 59 60 61 61 62 62 63 63 63 63 64 64
55 56 56 56 55 55 55 55 56 56 56 56 56 55 56 56 56 56 56 56 57 57 58 59 60 56 54 48 35 29 39 41 52 42 51 41 34 33 38 42 37 32 28 27 27 29 28 28 21 20 13 42 59 62 62 63 62 62 62 60 61 61 60 61 60 61 62 60 63 63 58 57 58 58 62 63 60 59 60 60 61 61 62 62 62 62 63 63
56 56 56 56 55 55 56 56 56 56 56 56 55 56 56 56 56 56 56 56 57 58 59 60 58 56 53 32 40 44 47 42 44 42 43 35 38 37 35 39 37 33 28 28 31 34 30 28 22 17 20 54 59 56 62 62 62 62 61 60 59 57 58 61 60 61 61 61 63 62 51 53 57 61 63 64 58 58 58 58 59 59 60 60 60 61 62 63
56 56 56 56 56 55 56 56 56 56 55 55 55 55 55 55 56 56 56 56 57 57 59 60 57 55 50 41 42 44 49 37 38 37 38 45 35 38 37 36 37 34 36 32 34 30 30 25 23 19 21 51 58 63 61 61 61 57 59 56 53 49 50 60 58 60 59 64 65 60 51 52 56 59 63 66 58 56 55 56 56 56 56 56 59 61 62 63
56 56 56 56 56 56 56 56 56 55 55 55 54 54 55 55 56 57 56 57 57 58 60 60 55 52 46 43 47 52 64 36 34 33 37 36 37 36 34 36 35 33 35 34 35 29 27 20 17 11 29 52 62 60 59 57 56 55 50 47 50 49 51 60 62 60 58 61 65 59 50 53 56 56 62 67 58 56 54 55 54 54 54 56 58 60 61 62
56 56 56 56 56 56 56 56 55 54 55 54 54 54 55 56 57 57 58 58 59 59 59 56 54 53 41 34 42 60 33 33 34 35 35 35 37 34 34 32 35 37 35 33 32 34 23 17 12 14 58 59 54 56 53 52 50 51 49 47 50 53 55 57 61 61 62 62 62 59 54 55 54 57 61 67 59 57 54 54 54 54 55 56 58 60 60 62
56 56 56 56 56 56 56 55 54 54 54 54 53 54 56 56 58 59 60 60 60 60 58 52 54 56 26 31 40 38 35 32 33 33 34 38 37 34 28 26 29 28 26 28 29 20 17 10 14 15 21 53 45 53 48 43 45 47 50 47 51 55 55 53 57 61 61 60 57 60 55 54 56 60 63 64 59 57 54 54 53 55 56 56 58 59 60 61
56 55 55 55 55 55 55 55 54 54 53 53 53 55 55 59 60 60 59 59 59 58 57 56 54 36 27 30 27 34 37 35 32 29 31 34 36 34 28 26 18 10 8 11 6 17 15 7 15 10 16 27 44 48 38 36 43 45 46 47 48 55 56 55 53 56 60 60 56 58 56 56 57 59 62 64 60 57 54 54 54 56 56 57 57 58 59 60
55 55 55 55 55 55 55 55 54 53 53 53 53 57 57 59 55 54 53 56 42 37 28 41 33 27 24 25 31 34 40 37 30 29 28 27 32 34 37 20 15 18 9 6 5 7 7 7 11 14 12 20 34 45 34 37 48 48 48 49 50 50 52 53 57 62 60 57 55 56 53 54 55 58 61 63 64 55 54 55 56 57 56 57 57 58 59 60
56 55 55 55 54 55 55 54 53 52 52 51 48 52 41 27 27 28 44 52 43 33 29 28 37 36 34 33 33 33 38 29 29 28 25 29 24 23 24 20 17 8 4 4 5 4 12 3 4 7 9 14 24 41 38 39 48 49 51 51 50 50 53 58 59 62 61 56 55 55 56 55 56 57 59 62 63 58 56 56 56 57 57 57 57 58 59 59
56 55 55 54 54 54 54 53 52 52 52 51 49 30 25 27 26 25 27 28 33 40 36 34 34 33 29 32 32 28 23 22 25 23 26 46 20 18 16 21 17 18 17 6 4 9 10 7 4 3 13 16 18 29 28 32 45 46 49 48 49 50 49 54 58 62 61 56 54 56 56 56 57 58 59 62 62 60 57 57 57 57 58 58 58 58 59 60
55 55 54 54 54 53 53 53 52 52 49 48 40 24 25 30 32 29 28 26 27 30 35 36 36 33 34 34 34 26 27 24 21 22 22 23 20 15 17 17 17 17 18 8 12 10 11 2 2 4 9 15 18 20 22 20 24 34 38 48 48 50 53 58 60 61 61 57 52 56 55 55 56 56 58 60 62 62 62 59 59 58 58 58 58 59 60 62
55 55 54 54 53 53 52 52 51 50 50 47 40 34 31 31 35 36 29 28 26 30 33 35 33 33 33 36 39 35 32 28 22 23 20 21 18 17 19 16 17 16 11 9 7 14 12 4 4 5 10 12 15 19 20 21 21 32 47 46 41 49 49 45 53 60 60 55 52 55 55 54 55 56 57 59 62 62 62 63 63 62 59 58 58 59 60 61
55 55 54 54 53 52 52 51 51 50 46 46 44 34 33 37 39 33 28 27 26 29 31 31 32 33 33 26 30 33 30 29 23 23 42 17 15 18 18 18 15 14 13 7 7 5 4 6 12 9 10 10 9 12 14 14 12 34 40 47 48 51 51 47 54 59 59 58 57 54 48 48 51 54 55 57 61 61 62 64 63 63 64 61 60 60 61 61
55 55 55 54 53 52 50 50 45 46 47 47 46 45 40 42 45 41 30 29 28 29 34 27 31 29 29 30 34 30 28 24 22 23 37 18 19 16 16 20 17 18 14 12 8 13 7 8 9 9 11 12 13 10 11 14 16 29 42 45 46 52 54 58 59 56 52 51 55 51 39 40 45 51 54 54 59 60 60 62 62 62 63 62 59 59 60 61
55 54 54 53 53 51 50 42 40 45 45 38 32 35 40 42 45 44 33 30 27 30 23 22 29 25 27 23 27 25 23 23 24 22 28 19 38 17 23 19 20 16 18 11 9 9 11 13 11 11 11 13 13 11 12 16 15 33 36 44 50 53 56 57 56 50 45 44 50 53 41 35 43 46 51 53 56 58 59 61 62 62 62 63 59 59 60 60
54 54 53 53 52 50 39 37 45 47 33 23 27 44 42 42 48 36 27 30 27 35 21 25 20 20 19 20 22 22 16 17 20 30 32 48 20 29 17 16 18 21 17 19 20 8 15 13 11 12 13 13 13 12 11 14 26 25 21 47 53 55 56 56 53 49 47 52 53 52 45 40 41 44 52 54 54 55 57 59 61 62 62 63 61 59 60 60
54 54 53 52 51 51 44 46 47 44 39 26 46 45 43 47 41 34 32 23 21 31 25 21 19 20 15 18 22 19 19 18 15 18 23 34 23 18 17 16 15 15 19 19 16 16 11 9 8 10 12 8 7 10 13 12 10 9 42 51 53 54 55 55 50 47 47 46 41 47 50 43 41 43 50 54 52 53 55 57 59 61 62 63 64 61 59 60
54 53 52 52 51 50 49 48 48 44 43 47 47 44 44 44 31 28 28 21 24 21 22 19 19 16 16 20 20 17 18 20 15 18 22 24 22 17 16 15 16 17 20 18 15 16 17 8 9 7 7 5 8 8 11 7 11 46 52 52 52 50 50 50 47 45 42 39 36 44 48 41 40 42 49 52 51 51 53 55 57 59 61 63 64 63 61 60
53 53 52 51 49 50 49 50 48 48 48 49 46 45 42 33 29 24 20 18 27 24 21 18 14 13 18 18 18 16 16 17 23 22 20 19 19 20 20 18 18 18 16 21 17 16 16 38 34 10 6 6 8 10 9 22 29 48 50 49 46 44 44 43 40 42 40 35 38 40 48 40 33 37 47 48 49 52 52 54 56 58 60 62 63 64 62 60
53 52 51 51 47 46 49 41 42 46 49 48 46 37 30 28 33 24 18 17 26 23 16 15 15 13 13 14 13 13 15 17 17 23 17 20 16 20 20 17 22 21 24 23 17 18 18 19 21 22 33 13 8 7 11 33 41 41 41 46 45 42 39 40 36 39 35 34 36 38 47 42 34 37 44 49 53 55 54 54 54 56 59 60 62 64 63 61
51 51 51 50 49 50 43 37 40 48 48 48 40 25 16 14 20 15 14 24 23 21 12 12 14 11 11 10 10 9 11 13 17 20 15 15 18 15 16 17 22 16 20 20 12 18 15 17 17 15 49 8 7 5 8 17 18 41 42 34 31 22 37 38 31 36 33 33 39 46 48 44 43 38 46 47 50 52 55 56 56 56 57 60 62 63 64 62
50 50 50 50 51 48 49 46 49 48 49 47 35 27 21 22 15 19 19 18 18 19 13 15 17 18 11 9 8 10 13 9 13 20 18 19 16 17 18 16 20 17 15 26 17 15 15 17 16 15 14 31 7 4 9 14 18 38 39 23 25 26 22 29 27 29 27 30 39 45 46 41 43 45 47 47 51 54 55 57 58 58 57 59 61 63 63 63
50 50 49 50 50 49 50 54 51 51 47 49 28 21 19 15 17 49 17 20 17 24 26 21 18 15 9 7 7 9 6 9 14 15 18 20 16 18 16 17 18 19 18 22 13 15 15 14 15 16 13 17 13 9 8 9 18 15 18 17 22 23 21 19 22 25 25 30 41 45 40 39 38 44 50 50 53 56 58 59 60 60 60 59 60 62 63 63
50 49 48 48 51 51 49 49 51 50 36 30 26 22 16 15 24 23 31 27 23 24 20 20 20 11 11 9 10 12 7 8 13 16 17 14 14 15 15 14 19 20 21 15 22 23 14 17 17 18 18 17 16 21 24 28 27 27 20 22 18 21 27 16 24 29 29 35 35 40 37 41 41 47 53 55 55 56 58 58 61 60 62 62 62 62 63 63
47 46 48 47 53 54 50 49 49 48 29 26 23 17 9 18 13 22 24 25 23 18 18 13 9 8 9 8 11 10 13 9 13 13 14 14 15 14 16 14 16 17 15 14 24 14 24 15 14 19 22 18 17 26 27 25 21 27 28 26 29 32 38 39 42 35 33 29 28 40 40 43 45 47 50 54 54 55 56 57 59 59 61 62 62 62 63 63
46 47 45 47 51 52 51 50 50 38 28 22 16 13 21 25 20 25 45 16 14 20 15 11 15 6 10 6 9 13 13 10 11 10 12 14 11 13 14 16 19 18 16 16 16 16 14 14 14 19 24 28 28 31 31 31 25 30 28 29 36 37 33 29 25 29 29 25 27 38 39 40 37 38 50 53 54 54 55 56 58 58 60 61 61 62 63 63
46 47 51 50 50 51 51 50 40 30 25 21 17 48 36 20 28 25 26 15 14 14 16 18 15 9 13 15 14 13 13 7 10 10 11 11 12 14 15 15 17 18 17 18 14 18 14 13 12 15 20 23 25 28 28 32 33 25 30 36 29 29 27 31 27 23 23 23 26 31 38 42 39 40 47 50 53 53 55 56 56 58 59 59 60 62 62 63
47 48 40 43 51 51 50 48 33 29 20 16 21 15 32 28 31 26 22 17 17 17 13 15 16 21 15 15 15 15 12 7 11 12 9 11 11 15 14 16 17 19 18 15 13 20 21 11 15 16 19 18 21 26 23 31 32 33 33 31 38 38 33 30 28 30 28 25 28 27 35 33 43 43 50 51 53 54 55 55 56 57 59 60 60 61 62 62
47 43 39 45 50 50 51 42 32 21 19 11 20 26 21 17 16 21 19 17 7 12 13 17 18 17 20 16 16 14 16 11 9 9 11 15 11 16 16 19 14 21 20 17 17 25 16 19 13 12 18 21 21 27 24 32 31 31 30 30 33 36 39 37 40 33 28 29 28 27 28 34 38 44 52 52 54 55 56 56 56 57 58 60 61 61 62 63
47 42 38 44 49 50 43 28 23 21 16 22 28 21 20 12 15 15 18 19 13 16 8 17 18 15 17 16 14 16 14 14 11 10 11 12 13 14 14 16 18 18 20 19 22 25 16 21 15 19 18 20 20 26 23 31 31 31 31 31 34 33 32 28 30 37 37 31 27 28 28 33 38 53 54 54 55 57 57 57 57 58 59 59 60 61 63 63
36 34 36 40 41 41 29 21 23 30 20 23 7 18 15 41 26 21 19 19 14 13 18 14 15 14 17 15 15 18 15 16 16 15 15 8 12 13 14 18 19 18 14 15 17 21 18 24 18 18 19 21 20 22 28 28 33 32 30 32 35 36 35 33 24 31 36 39 37 33 31 35 43 50 56 56 57 58 58 58 58 59 59 59 60 62 63 63
37 33 36 42 46 35 31 28 42 38 25 21 27 24 20 20 22 17 14 16 17 16 18 16 16 17 19 15 17 15 15 15 17 14 15 15 13 16 16 17 21 24 24 26 21 24 57 23 22 23 31 35 29 29 33 36 34 32 35 37 33 32 34 32 31 35 34 38 34 34 33 36 42 52 56 56 57 58 57 58 58 59 59 60 61 62 62 63
40 41 41 44 48 35 29 28 30 30 34 40 38 35 32 28 21 22 18 17 18 18 18 20 20 20 22 19 16 15 15 17 17 17 20 20 16 20 21 18 23 20 17 21 21 28 20 25 23 24 27 29 29 31 31 33 37 39 35 39 40 41 39 39 39 39 36 37 35 31 27 33 40 51 54 56 57 56 56 57 59 58 58 60 60 61 62 62
42 43 43 45 51 34 31 30 30 31 36 39 39 38 37 36 24 24 27 24 26 20 19 18 19 19 22 19 19 19 21 13 18 16 19 20 18 25 24 21 24 20 22 30 47 22 23 30 27 24 24 24 23 24 27 28 29 30 40 41 41 38 38 36 34 35 26 35 35 32 31 35 39 45 47 50 52 53 53 55 58 58 58 59 59 61 61 61
42 37 43 45 46 44 43 44 42 41 39 41 39 39 37 35 37 37 27 23 22 22 18 20 22 21 20 20 21 18 17 18 14 21 22 18 18 19 22 24 25 27 45 57 47 37 31 37 33 29 26 26 28 31 35 41 24 18 24 35 35 40 39 39 36 31 27 33 35 37 36 35 37 40 45 47 50 51 51 53 57 58 58 58 58 60 61 60
42 41 43 41 44 42 42 41 41 42 40 41 37 38 37 37 38 36 31 28 26 30 25 24 23 25 23 18 19 17 21 16 25 23 21 20 22 19 25 34 37 51 58 48 47 30 32 22 26 31 28 26 31 32 24 37 22 25 21 27 32 39 38 36 32 32 36 36 31 40 41 36 36 39 41 43 45 49 52 52 54 56 57 58 58 59 62 60
34 39 46 46 39 36 40 40 42 41 41 41 39 42 39 39 38 37 37 33 31 32 27 26 31 32 27 20 22 20 28 28 26 19 27 28 21 21 22 23 28 42 42 32 40 26 26 20 20 26 24 29 28 29 28 27 24 25 21 20 22 38 37 35 35 38 37 32 29 35 40 38 39 41 43 43 45 48 50 52 55 58 58 59 58 58 59 61
42 44 46 48 42 44 41 42 44 43 38 39 43 41 40 40 38 38 37 35 33 33 31 29 31 32 31 31 26 26 31 22 23 31 27 25 21 27 24 23 21 23 20 22 26 34 21 22 26 24 23 22 23 24 25 18 27 24 22 20 19 34 38 36 36 41 37 37 38 38 41 39 39 40 43 49 52 53 58 58 58 58 59 59 58 58 61 63
43 43 42 47 46 45 45 43 42 40 37 44 38 40 41 40 38 38 39 34 33 33 33 33 32 33 33 34 36 30 32 27 26 26 31 28 24 30 28 27 25 33 22 19 24 28 20 24 34 24 25 24 25 33 23 20 22 23 22 33 30 30 37 40 41 42 41 38 46 44 42 41 43 45 52 57 57 56 56 56 56 58 59 59 58 58 61 62
47 48 48 42 37 38 45 42 39 41 38 40 42 42 43 40 39 39 38 38 34 36 34 34 34 34 37 35 34 34 34 35 34 26 29 26 22 30 21 23 29 30 24 24 29 30 27 24 31 29 21 21 24 23 26 31 27 27 31 32 34 35 36 36 37 42 38 38 44 42 38 39 43 49 56 55 55 55 55 56 57 59 59 59 58 58 59 60
48 48 49 43 36 46 39 41 42 34 34 39 44 43 41 40 40 39 38 39 36 36 37 36 37 36 35 35 34 34 34 35 35 34 32 29 25 25 25 24 25 27 23 22 33 23 31 28 22 23 19 22 25 31 30 26 24 22 28 29 34 37 38 37 43 45 42 43 42 37 37 41 44 53 54 53 55 54 54 56 56 57 59 58 56 57 59 60